Tracking 30995 objects as of 7-Jul-2025
HD Live streaming from Space Station
objects crossing your sky now

STARLINK-5540

Track STARLINK-5540 now!
10-day predictions
STARLINK-5540 is classified as:


NORAD ID: 56340
Int'l Code: 2023-058Z
Perigee: 568.7 km
Apogee: 571.6 km
Inclination: 97.7 °
Period: 95.9 minutes
Semi major axis: 6941 km
RCS: Unknown
Launch date: April 27, 2023
Source: United States (US)
Launch site: AIR FORCE WESTERN TEST RANGE (AFWTR)
Your satellite tracking list
AETHER-2
Track 1 satellite(s)




NASA's NSSDC Master Catalog

Two Line Element Set (TLE):
1 56340U 23058Z   25187.56688981  .00000405  00000-0  36154-4 0  9992
2 56340  97.6552 188.8949 0002147 131.5000 228.6408 15.01259235121204
Source of the keplerian elements: AFSPC